GEFSCGP_500_meanwind_246.txt.gz
Wind_Speed
8 8 8 8 8 9 11 11 10 11 12 13 13 14 15 14 14 15 16 17 17 18 16 16 16 16 15 16 16 17 17 17 16 16 16 16 17 16 15 15 16 18 19 19
9 8 7 8 8 9 11 12 12 11 13 13 14 14 15 15 15 16 16 16 17 16 15 16 15 15 16 16 15 16 15 15 16 16 15 16 17 17 17 16 17 18 18 18
7 7 7 8 9 10 11 13 13 14 14 13 14 14 14 14 16 16 16 16 16 15 15 15 15 15 15 15 16 16 16 16 16 17 16 16 17 17 18 18 18 18 18 18
7 6 7 8 9 11 13 13 13 14 14 14 14 15 13 13 14 15 16 15 14 13 13 13 14 16 15 15 15 16 16 16 17 17 17 17 18 17 17 18 18 18 18 18
7 6 7 8 9 10 11 11 12 14 14 13 14 15 13 13 13 14 14 13 12 12 13 13 14 15 15 16 16 16 16 17 17 17 17 17 17 17 17 17 17 17 18 18
7 7 8 9 9 9 10 11 11 12 12 13 13 13 12 12 13 13 12 12 11 12 13 14 15 15 14 14 16 17 16 17 17 17 16 15 15 16 16 16 16 16 16 17
8 8 10 11 11 10 10 11 11 11 12 12 12 11 11 12 12 13 13 12 11 12 13 13 13 13 12 12 14 15 15 16 16 16 16 16 15 15 16 15 14 15 15 15
10 10 11 11 11 11 11 10 10 12 13 13 12 12 11 12 12 12 12 12 11 11 11 10 9 9 9 10 11 13 14 14 14 14 14 14 15 15 15 15 15 15 14 14
12 10 10 10 10 11 11 10 10 11 13 13 12 12 11 11 12 12 11 10 10 10 9 9 8 7 8 9 10 11 12 13 14 14 14 13 14 15 15 15 15 14 14 14
13 11 10 10 11 11 11 10 11 12 13 13 13 12 12 11 10 11 11 10 9 9 8 7 7 7 8 8 9 9 10 11 12 13 13 13 13 13 14 14 13 13 13 13
14 13 11 11 12 12 11 11 11 12 13 14 15 13 12 12 11 11 11 10 10 10 8 7 7 8 8 9 10 10 10 10 11 11 11 12 12 13 13 13 12 12 12 12
14 14 13 13 12 11 11 11 11 13 14 14 15 14 12 12 12 11 11 10 10 9 8 7 7 8 9 9 10 9 9 10 10 10 10 11 11 12 13 12 12 13 12 12
14 14 14 14 14 12 11 12 13 14 14 14 13 14 13 13 12 12 11 10 9 9 8 8 8 9 10 10 10 9 9 10 10 10 10 10 10 11 12 11 11 12 12 12
14 15 15 15 14 14 13 13 13 15 15 14 14 14 13 13 12 11 11 9 9 9 9 10 10 10 11 11 10 9 10 10 9 9 9 9 10 11 12 12 12 11 11 11
16 16 16 15 16 16 16 16 15 16 16 16 16 15 14 12 11 11 11 10 9 9 9 10 11 12 11 11 11 10 9 9 9 9 9 10 11 12 12 12 11 11 11 11
18 17 16 16 17 17 17 17 17 17 16 16 16 16 15 13 12 11 11 11 11 10 10 11 12 11 12 11 10 10 10 10 9 10 10 11 12 13 12 11 10 10 11 12
19 19 18 18 18 18 18 16 17 17 16 16 16 15 14 13 12 12 12 12 12 12 11 11 11 12 11 11 11 11 12 12 11 11 11 12 12 12 11 11 11 11 12 13
21 21 21 21 20 20 17 17 17 17 17 15 15 14 14 14 13 13 13 13 13 13 13 14 13 12 12 12 13 13 12 12 12 13 13 13 13 12 12 12 13 13 14 14
21 20 21 21 20 20 17 16 17 17 16 16 15 15 15 16 15 14 14 14 14 14 15 15 15 15 15 14 14 13 13 13 14 14 14 14 14 14 14 14 14 15 15 15
20 21 21 21 22 21 18 18 17 17 17 16 16 16 16 17 17 16 15 16 16 16 16 16 16 16 16 15 14 14 14 15 15 15 15 15 15 15 15 16 16 16 16 16
21 21 21 22 22 21 19 19 18 19 18 17 17 17 17 17 17 18 18 18 18 18 18 17 17 17 15 15 15 15 15 15 16 16 16 16 16 17 16 16 16 17 17 17
21 22 22 23 23 22 20 21 21 20 19 19 19 19 19 19 19 19 19 19 19 17 18 18 17 18 17 17 16 16 16 16 16 16 16 17 17 17 17 17 17 17 17 18
23 23 24 23 23 22 23 23 22 21 20 21 21 21 21 20 19 20 20 20 19 19 19 18 18 18 18 17 17 17 16 16 16 16 16 16 16 17 17 16 16 17 17 17
23 24 25 25 24 24 24 23 23 22 21 22 23 23 23 22 21 21 21 20 18 18 19 19 18 18 19 18 18 17 17 17 16 16 16 16 16 16 15 15 16 16 16 16
24 24 25 26 25 25 24 24 23 23 23 24 24 24 23 22 22 21 21 20 19 18 19 19 19 20 20 19 18 17 17 17 17 17 16 16 15 15 15 15 15 16 16 16
23 24 25 25 24 24 24 24 24 24 24 24 23 24 23 23 23 22 21 21 21 21 20 20 20 20 20 19 19 18 18 18 17 16 16 15 15 15 15 15 15 16 16 16

GEFSCGP_500_meanwind_252.txt.gz
Wind_Speed
10 11 11 12 13 13 14 15 16 15 16 16 15 15 16 16 16 17 17 17 18 19 18 17 17 17 17 14 14 14 15 15 15 15 15 15 15 15 16 17 18 18 19 19
11 11 12 13 14 15 15 16 16 15 16 16 16 15 16 16 15 16 16 16 17 17 18 18 18 17 16 15 13 13 13 13 13 13 14 15 15 15 15 16 17 17 18 19
11 11 12 13 14 15 15 16 15 15 15 16 16 15 15 15 15 16 16 16 15 16 17 17 18 17 17 16 15 14 13 13 13 14 15 16 17 16 16 17 17 18 18 18
12 12 13 14 14 15 14 15 15 15 15 16 16 15 13 14 15 16 15 15 15 15 13 14 14 16 16 16 16 15 14 13 14 14 15 16 17 17 17 17 16 17 17 17
13 13 14 14 14 15 15 16 16 15 15 15 15 15 13 13 14 14 15 14 13 12 12 13 14 14 15 15 14 14 14 14 14 15 16 17 18 17 17 16 16 17 17 17
13 14 14 14 14 15 17 16 16 15 14 14 14 15 13 13 14 14 14 14 13 13 12 13 13 12 13 13 13 14 14 13 13 14 15 16 17 16 16 16 16 16 17 18
14 14 15 15 15 15 16 17 17 16 15 14 13 14 13 13 13 13 13 13 13 13 13 13 12 11 10 11 12 13 13 13 13 14 14 15 16 16 16 16 16 17 17 17
14 14 15 16 16 16 15 16 17 17 16 14 13 15 14 13 13 14 13 13 12 11 11 11 11 11 10 10 11 12 12 12 13 13 13 13 14 15 15 16 16 17 17 17
15 14 14 15 16 16 16 16 16 17 16 15 14 14 14 14 14 14 13 13 12 11 10 9 9 9 9 10 11 11 11 11 12 12 12 13 13 14 15 16 17 17 16 16
16 16 15 16 17 17 17 17 17 16 15 15 14 15 14 14 14 14 13 13 12 11 10 8 8 9 9 10 11 11 11 12 12 13 13 13 14 15 15 16 16 16 16 15
17 17 16 16 17 17 17 18 17 17 16 16 16 15 14 14 14 14 13 13 12 11 9 8 9 9 10 11 11 11 11 11 12 13 13 14 14 15 16 15 15 14 14 13
17 18 17 16 16 16 17 17 17 17 17 17 17 15 15 15 14 13 13 13 12 11 10 10 10 11 11 11 11 11 11 11 12 12 11 12 13 14 15 15 15 14 14 14
17 17 17 16 15 16 17 17 17 18 18 17 17 16 15 15 14 14 14 14 12 11 11 10 11 11 11 11 11 11 12 12 11 10 10 11 11 12 13 15 15 14 14 15
18 17 17 17 17 17 17 16 17 18 18 18 17 16 15 15 15 14 14 14 13 11 12 11 11 11 12 12 12 12 12 12 12 11 11 11 11 12 14 14 14 14 14 15
18 18 18 18 19 19 19 18 18 18 18 19 17 18 16 16 16 15 15 14 14 13 13 13 12 12 12 13 13 13 13 13 13 12 12 13 13 14 14 14 14 15 15 15
19 19 19 19 20 20 20 19 19 19 19 20 20 19 19 18 17 17 16 15 15 15 14 14 14 14 13 13 13 14 14 14 13 13 13 14 15 16 15 15 15 15 16 17
21 22 22 21 21 22 21 20 20 21 21 21 21 21 20 19 18 18 18 17 16 16 15 15 15 15 14 14 14 15 14 14 14 15 15 16 15 15 15 15 16 16 16 17
22 23 23 22 22 22 21 20 21 21 21 21 22 22 21 20 19 19 18 17 17 16 16 16 16 15 15 15 15 15 14 14 15 15 16 15 14 15 16 16 16 16 16 16
22 23 23 23 23 22 20 20 21 21 20 21 21 21 21 21 20 19 19 18 18 17 16 16 16 16 16 16 15 15 15 15 15 16 16 16 16 16 16 16 16 17 17 17
23 24 24 24 24 23 21 21 21 22 22 21 20 21 21 20 21 20 19 19 17 16 16 16 17 17 17 16 16 16 16 16 16 16 16 15 15 15 16 17 17 17 16 16
23 23 24 24 25 23 22 22 22 22 22 21 21 21 21 21 21 20 19 19 18 17 16 17 17 17 17 17 16 16 16 17 16 15 15 15 15 16 16 17 17 17 17 16
23 23 24 24 24 23 23 23 23 23 22 21 21 20 20 20 20 21 20 20 19 19 18 17 17 17 17 18 17 16 16 16 15 15 16 16 16 16 16 16 17 16 16 15
23 24 24 25 25 25 24 24 24 23 23 23 22 21 20 20 21 20 20 19 19 19 20 19 18 18 18 18 18 18 17 16 16 16 16 17 17 16 16 17 16 16 16 16
24 24 24 24 24 25 25 25 24 24 24 24 24 22 22 22 21 21 20 20 20 20 21 21 21 20 19 19 18 18 18 18 17 17 16 17 16 17 17 16 16 16 16 16
24 23 23 23 23 24 24 24 24 24 24 24 24 23 23 23 22 22 21 21 21 21 21 21 21 21 20 19 19 19 19 18 17 17 17 17 17 17 17 17 17 17 16 17
23 23 23 23 23 22 22 22 23 23 23 23 23 23 23 23 23 22 22 21 21 19 20 20 21 21 20 20 19 18 17 18 17 17 17 17 17 17 17 16 16 17 17 17

GEFSCGP_500_meanwind_258.txt.gz
Wind_Speed
9 10 10 11 11 12 13 13 13 15 16 16 16 17 17 17 17 17 17 18 18 19 18 18 18 18 18 18 18 17 18 18 17 17 16 17 17 17 17 18 18 18 19 19
10 11 12 12 13 13 13 13 13 15 16 16 17 16 17 17 17 16 16 16 16 17 17 17 18 18 17 18 18 18 18 18 17 16 16 16 17 17 17 18 18 19 20 20
11 12 13 13 13 13 13 14 14 15 16 16 16 16 17 16 16 16 15 15 15 16 15 16 17 17 18 18 18 18 17 17 16 16 16 15 16 17 17 18 19 19 20 21
13 13 13 14 14 14 14 15 15 15 16 16 16 17 17 16 15 15 15 14 14 14 14 14 14 15 16 16 16 15 15 16 16 16 15 15 15 15 16 18 19 19 19 19
13 13 14 14 15 15 15 15 15 16 16 16 16 17 18 17 16 15 14 14 14 13 14 13 12 13 14 14 14 15 15 14 15 14 14 14 14 15 15 16 17 18 18 18
13 14 14 15 16 16 16 16 16 16 16 17 17 18 17 17 16 15 15 13 12 12 12 11 12 13 13 14 15 15 14 14 14 14 13 13 14 14 15 15 15 16 16 17
14 14 15 16 16 17 16 16 15 15 15 17 17 17 16 17 16 15 14 13 12 11 11 11 11 13 13 13 13 14 14 14 14 14 14 14 15 15 16 16 15 16 16 17
14 15 16 15 16 16 15 15 15 15 15 16 17 16 15 15 15 14 13 12 12 11 11 11 11 12 12 12 12 14 14 14 14 14 14 15 15 16 16 16 16 17 17 18
16 16 17 16 16 15 15 15 15 16 16 16 16 16 15 15 14 14 13 13 12 11 11 11 10 11 12 12 11 13 13 14 14 15 15 16 16 16 16 17 17 17 18 18
16 17 17 17 17 16 15 15 16 15 16 15 15 15 15 15 14 13 12 12 12 11 11 11 10 10 12 12 12 13 13 13 14 15 16 15 16 16 16 17 17 18 18 18
17 17 17 17 16 16 16 15 16 16 16 16 16 15 15 15 14 13 12 12 12 11 11 11 11 12 12 13 13 13 14 13 14 14 14 15 15 15 16 17 17 18 18 19
16 16 17 17 17 16 16 16 16 16 17 17 17 16 16 15 14 13 12 12 12 11 11 11 11 11 12 13 14 14 14 14 14 14 14 15 14 14 15 15 16 17 18 19
17 17 17 17 17 17 17 16 17 17 18 17 17 17 16 16 15 14 13 13 12 12 13 12 12 11 12 14 14 14 15 15 15 15 14 14 15 15 15 15 16 17 18 18
18 18 18 17 17 19 17 17 17 18 18 18 17 17 17 17 16 15 14 14 14 14 14 14 14 13 13 14 15 14 14 15 15 15 15 15 15 15 14 15 15 15 16 17
20 20 19 19 19 18 18 17 18 18 19 19 18 18 18 18 17 17 16 15 15 16 15 15 15 15 15 15 15 15 15 16 16 15 16 16 15 15 15 15 15 16 16 17
20 21 20 19 19 19 19 18 19 19 20 20 19 18 19 19 19 18 18 17 17 17 16 16 16 16 16 17 17 16 16 16 16 16 16 16 15 15 16 16 15 16 16 16
21 21 20 20 20 20 20 20 20 20 20 20 20 19 19 19 19 19 19 18 18 18 18 17 17 17 18 18 18 17 17 17 16 16 16 16 16 16 16 17 16 16 15 15
20 20 21 22 22 22 22 21 21 20 20 20 21 20 20 20 20 20 20 20 19 19 18 18 18 18 18 18 18 18 18 17 17 17 17 16 16 17 17 16 16 15 15 15
22 22 22 22 22 23 22 22 21 21 21 21 21 21 20 20 20 20 20 20 19 19 19 18 18 18 18 18 18 19 18 18 18 17 17 17 17 17 17 16 16 16 16 16
21 22 22 21 21 21 21 22 21 21 22 22 22 21 21 20 20 20 20 20 20 19 19 19 19 19 19 19 19 19 18 18 18 17 17 18 18 18 17 16 17 17 17 16
22 21 21 21 21 21 21 21 21 21 22 22 22 22 22 22 22 21 21 21 21 20 20 20 19 19 19 19 19 19 19 18 18 18 18 18 18 18 18 17 16 16 16 16
21 22 21 21 21 21 21 22 22 22 22 22 22 22 22 22 22 22 22 22 21 21 21 20 20 19 19 19 20 20 20 19 18 19 19 18 18 18 18 17 16 16 16 16
21 21 21 21 22 22 22 23 23 22 21 20 20 20 21 21 22 22 22 21 21 21 21 20 20 20 20 20 21 21 20 19 18 18 19 19 18 18 17 16 16 17 16 16
21 20 21 21 22 21 22 22 22 22 22 21 20 20 19 20 20 21 20 20 20 20 20 20 21 21 21 20 20 20 20 19 19 19 18 18 18 18 18 17 17 16 16 17
23 22 22 21 21 22 21 21 21 21 21 21 21 20 20 19 20 20 20 21 21 20 20 21 21 22 22 21 21 21 20 20 20 19 19 19 18 18 18 17 17 17 17 17
23 22 22 21 21 21 21 20 20 20 20 20 20 20 20 19 19 20 21 22 21 21 21 21 21 21 21 22 22 22 22 22 20 19 19 20 20 19 18 17 17 17 17 16

GEFSCGP_500_meanwind_264.txt.gz
Wind_Speed
9 10 8 9 12 12 13 12 12 14 14 16 16 17 18 19 18 20 21 22 22 22 21 21 21 21 20 19 19 20 19 19 18 18 17 17 18 18 18 17 18 18 18 18
9 9 10 13 14 13 12 13 14 15 15 17 18 18 17 19 19 20 21 21 22 22 21 21 21 20 19 18 18 18 18 18 17 17 16 17 18 18 17 17 18 17 18 18
10 11 13 15 13 13 14 15 16 17 14 16 18 17 18 18 20 20 20 21 21 21 21 20 19 18 17 17 16 16 17 16 16 16 16 17 17 17 16 17 18 17 17 18
12 12 14 15 15 15 16 15 16 16 15 16 17 18 18 18 20 21 20 20 20 20 19 18 15 15 16 16 16 16 15 15 15 16 16 16 16 16 16 17 17 17 17 18
12 13 15 16 15 16 16 15 15 16 16 17 17 19 19 18 21 21 19 19 20 19 19 18 17 16 16 16 15 15 15 15 16 16 16 16 16 16 16 17 17 17 18 18
12 13 15 16 17 16 15 14 14 14 15 18 16 18 19 18 20 21 20 20 21 20 18 17 17 16 16 16 15 15 15 16 16 16 16 16 16 15 16 17 16 16 17 17
12 14 15 16 17 16 15 14 15 16 16 16 15 18 19 19 21 21 21 20 20 19 18 17 17 17 15 15 15 15 15 15 15 16 16 16 16 16 16 17 17 17 17 17
15 16 16 17 18 17 16 15 16 18 16 17 17 19 20 20 21 22 20 19 19 17 17 17 16 15 15 15 15 15 15 16 16 16 16 16 17 17 17 17 17 17 16 17
16 17 15 16 17 17 17 16 17 18 18 18 17 18 21 19 21 22 21 20 19 17 16 16 15 14 14 15 14 14 15 15 16 16 17 17 16 17 17 17 17 17 17 18
17 18 16 15 17 17 16 15 16 17 17 17 17 17 20 21 20 22 20 20 18 17 15 16 16 14 14 15 15 15 15 16 16 17 16 15 16 17 17 18 17 17 18 19
19 19 17 15 16 16 16 16 17 17 18 18 18 18 21 22 23 21 20 20 20 19 17 17 17 16 15 15 16 16 16 16 16 16 16 15 15 16 17 17 17 18 18 20
20 20 19 17 16 16 17 17 18 19 19 19 20 20 21 23 23 22 21 20 18 18 18 17 18 17 16 15 15 16 15 16 16 15 15 15 15 16 16 17 18 19 20 21
21 21 20 18 17 17 18 18 18 20 21 20 21 21 22 24 24 22 21 21 19 18 17 17 17 17 17 16 16 16 16 16 16 15 15 15 16 17 17 18 18 19 20 21
22 22 21 20 18 19 19 19 18 19 21 21 21 21 21 22 22 22 21 21 20 19 18 18 18 17 17 16 16 17 17 17 16 16 16 17 18 18 18 18 19 19 19 19
23 22 21 20 19 19 21 20 19 20 21 22 22 21 21 22 22 22 22 22 21 20 19 19 19 18 17 17 17 17 16 16 17 17 17 18 19 18 18 18 18 18 18 18
24 23 22 21 20 20 21 21 21 21 21 22 22 22 24 23 23 23 23 23 22 21 20 19 19 19 18 18 19 18 17 17 18 19 19 19 19 19 18 18 18 19 18 18
24 23 22 23 21 21 22 22 22 21 20 22 22 23 23 24 24 25 24 23 23 23 22 21 20 19 19 20 20 19 19 19 19 19 19 19 19 20 20 20 19 19 19 19
24 23 23 23 22 23 22 22 22 22 23 23 24 24 25 25 24 24 23 22 22 22 23 22 22 21 21 21 21 21 21 21 20 20 20 20 19 19 20 20 20 20 19 19
23 23 23 23 23 23 22 22 22 22 23 24 25 25 25 24 25 25 25 24 24 24 24 24 23 22 22 22 21 21 21 21 21 21 21 20 20 20 20 20 21 21 20 19
23 23 23 23 24 25 24 24 24 24 25 25 26 25 26 25 26 25 26 26 25 25 25 25 24 23 23 23 22 22 21 22 22 21 21 21 20 20 21 21 21 21 21 21
23 23 23 23 25 26 25 24 24 25 26 26 25 25 26 26 26 25 25 25 25 25 25 25 24 24 23 23 23 23 22 22 22 22 22 21 21 21 22 22 22 21 21 21
22 23 24 25 25 25 25 24 24 24 25 25 26 26 27 27 26 25 25 24 24 24 24 25 24 23 23 23 22 22 22 22 22 22 22 22 22 22 22 22 22 21 21 21
24 23 23 23 24 25 25 24 24 25 25 25 25 25 26 26 26 25 24 24 24 24 24 24 24 24 24 23 22 22 21 22 22 23 23 23 23 23 23 23 22 21 21 21
25 25 25 25 26 25 25 25 24 24 24 24 23 24 25 25 25 24 24 24 24 24 24 23 23 23 23 23 22 22 22 22 22 23 23 23 23 23 22 21 21 20 20 20
25 25 25 25 24 25 26 25 24 24 23 23 24 25 25 25 25 25 24 24 24 24 23 23 23 23 23 23 22 22 22 23 23 23 23 23 22 22 21 20 20 20 20 20
24 25 24 24 24 25 25 24 25 24 23 22 22 23 24 25 24 24 24 24 24 24 23 23 23 22 23 22 22 22 22 23 23 23 22 22 21 21 20 20 20 19 19 19